Clarksville, TN

3:17 AM CDT on July 21, 2017 (GMT -0500)
Outlaw

Weather History for KCKV - November, 2012

Change the Weather History Date:

Tuesday, November 27, 2012

  Actual Average Record
Temperature  
Mean Temperature 34 °F 44 °F  
Max Temperature 41 °F 54 °F 78 °F (1965)
Min Temperature 28 °F 34 °F 14 °F (1977)
Degree Days  
Heating Degree Days 30    
Month to date heating degree days  
Since 1 July heating degree days  
Cooling Degree Days 0    
Month to date cooling degree days  
Year to date cooling degree days  
Moisture  
Dew Point 32 °F    
Average Humidity 85    
Maximum Humidity 92    
Minimum Humidity 70    
Precipitation  
Precipitation 0.02 in 0.18 in 2.76 in (2001)
Month to date precipitation 4.01  
Year to date precipitation 44.58  
Sea Level Pressure  
Sea Level Pressure 30.32 in    
Wind  
Wind Speed 9 mph (North)    
Max Wind Speed 17 mph    
Max Gust Speed 22 mph    
Visibility 7 miles    
Events Rain    
T = Trace of Precipitation, MM = Missing Value Source: NWS Daily Summary

Daily Weather History Graph

Daily Weather History Graph

Search for Another Location

Airport or City:

Trip Planner

Search our weather history database for the weather conditions in past years. The results will help you decide how hot, cold, wet, or windy it might be!

Date:

Astronomy

Nov. 27, 2012 Rise Set
Actual Time 6:39 AM CST 4:34 PM CST
Civil Twilight 6:11 AM CST 5:02 PM CST
Nautical Twilight 5:39 AM CST 5:34 PM CST
Astronomical Twilight 5:08 AM CST 6:05 PM CST
Moon 4:05 PM CST (11/27) 5:45 AM CST (11/27)
Length of Visible Light 10h 51m
Length of Day
9h 54m
Waxing Gibbous, 99% of the Moon is Illuminated
Nov 27
Waxing Gibbous
Nov 28
Full
Dec 6
Last Quarter
Dec 13
New
Dec 19
First Quarter

Hourly Weather History & Observations

Time (CST) Temp. Windchill Dew Point Humidity Pressure Visibility Wind Dir Wind Speed Gust Speed Precip Events Conditions
12:10 AM 41.0 °F 34.3 °F 37.4 °F 87% 30.20 in 5.0 mi NNE 11.5 mph - 0.01 in Rain Light Rain
12:18 AM 41.0 °F 33.9 °F 37.4 °F 87% 30.20 in 5.0 mi NNE 12.7 mph - 0.01 in Rain Light Rain
12:52 AM 39.9 °F 32.5 °F 37.0 °F 89% 30.21 in 7.0 mi North 12.7 mph - 0.02 in   Overcast
1:52 AM 39.9 °F 32.1 °F 36.0 °F 86% 30.23 in 6.0 mi North 13.8 mph - N/A   Overcast
2:52 AM 37.9 °F 29.2 °F 35.1 °F 89% 30.25 in 6.0 mi North 15.0 mph - N/A   Overcast
3:52 AM 37.0 °F 27.4 °F 34.0 °F 89% 30.25 in 8.0 mi North 17.3 mph 21.9 mph N/A   Overcast
4:14 AM 37.4 °F 30.3 °F 33.8 °F 87% 30.26 in 8.0 mi North 10.4 mph - N/A   Overcast
4:52 AM 36.0 °F 28.5 °F 32.0 °F 86% 30.28 in 9.0 mi North 10.4 mph - N/A   Overcast
5:52 AM 35.1 °F 27.4 °F 30.9 °F 85% 30.28 in 9.0 mi North 10.4 mph - N/A   Overcast
6:52 AM 35.1 °F 26.9 °F 30.9 °F 85% 30.30 in 8.0 mi North 11.5 mph - N/A   Overcast
7:52 AM 34.0 °F 27.2 °F 30.0 °F 85% 30.34 in 6.0 mi North 8.1 mph - N/A   Scattered Clouds
8:03 AM 33.8 °F 26.4 °F 30.2 °F 87% 30.34 in 5.0 mi North 9.2 mph - N/A   Mostly Cloudy
8:52 AM 35.1 °F 28.6 °F 32.0 °F 89% 30.37 in 4.0 mi North 8.1 mph - N/A   Overcast
9:52 AM 36.0 °F 28.0 °F 32.0 °F 86% 30.37 in 5.0 mi NNE 11.5 mph - N/A   Overcast
10:52 AM 37.0 °F 31.6 °F 32.0 °F 82% 30.37 in 5.0 mi NE 6.9 mph - N/A   Haze
11:52 AM 37.9 °F 32.1 °F 33.1 °F 83% 30.35 in 5.0 mi North 8.1 mph - N/A   Haze
12:52 PM 37.9 °F 32.1 °F 32.0 °F 79% 30.34 in 6.0 mi NNE 8.1 mph - N/A   Haze
1:39 PM 39.2 °F 34.2 °F 32.0 °F 75% 30.32 in 8.0 mi North 6.9 mph - N/A   Overcast
1:52 PM 39.0 °F 32.3 °F 33.1 °F 79% 30.32 in 8.0 mi North 10.4 mph - N/A   Overcast
2:52 PM 39.9 °F 33.9 °F 32.0 °F 73% 30.33 in 10.0 mi North 9.2 mph - N/A   Overcast
3:52 PM 39.9 °F 35.8 °F 30.9 °F 70% 30.35 in 10.0 mi NE 5.8 mph - N/A   Overcast
4:52 PM 37.9 °F - 30.9 °F 76% 30.35 in 10.0 mi Calm Calm - N/A   Overcast
5:52 PM 34.0 °F 31.0 °F 30.0 °F 85% 30.36 in 10.0 mi East 3.5 mph - N/A   Overcast
6:52 PM 34.0 °F - 30.0 °F 85% 30.37 in 10.0 mi Calm Calm - N/A   Overcast
7:11 PM 33.8 °F - 28.4 °F 81% 30.35 in 9.0 mi Calm Calm - N/A   Scattered Clouds
7:52 PM 32.0 °F - 28.9 °F 88% 30.37 in 8.0 mi Calm Calm - N/A   Clear
8:52 PM 30.9 °F - 28.0 °F 89% 30.36 in 6.0 mi Calm Calm - N/A   Clear
9:52 PM 30.0 °F - 28.0 °F 92% 30.36 in 5.0 mi Calm Calm - N/A   Clear
10:52 PM 28.9 °F - 27.0 °F 92% 30.38 in 4.0 mi Calm Calm - N/A   Clear
11:52 PM 28.9 °F - 27.0 °F 92% 30.38 in 4.0 mi Calm Calm - N/A   Clear